Weather History for KBDN - April, 2014

Change the Weather History Date:

Wednesday, April 9, 2014

  Actual Average (KRDM) Record (KRDM)
Temperature  
Mean Temperature 46 °F 43 °F  
Max Temperature 59 °F 58 °F 82 °F (1985)
Min Temperature 33 °F 28 °F 12 °F (2010)
Degree Days  
Heating Degree Days 19 22  
Month to date heating degree days 201  
Since 1 July heating degree days 5652  
Cooling Degree Days 0 0  
Month to date cooling degree days 0  
Year to date cooling degree days 0  
Moisture  
Dew Point 34 °F    
Average Humidity 66    
Maximum Humidity 93    
Minimum Humidity 36    
Precipitation  
Precipitation 0.00 in 0.03 in 0.18 in (1992)
Month to date precipitation 0.20  
Year to date precipitation 2.48  
Sea Level Pressure  
Sea Level Pressure 30.13 in    
Wind  
Wind Speed 4 mph (North)    
Max Wind Speed 17 mph    
Max Gust Speed 22 mph    
Visibility 10 miles    
Events      
T = Trace of Precipitation, MM = Missing Value Source: NWS Daily Summary

Daily Weather History Graph

Daily Weather History Graph

Search for Another Location

Airport or City:

Trip Planner

Search our weather history database for the weather conditions in past years. The results will help you decide how hot, cold, wet, or windy it might be!

Date:

Astronomy

Apr. 09, 2014 Rise Set
Actual Time 6:31 AM PDT 7:41 PM PDT
Civil Twilight 6:01 AM PDT 8:11 PM PDT
Nautical Twilight 5:26 AM PDT 8:47 PM PDT
Astronomical Twilight 4:48 AM PDT 9:24 PM PDT
Moon 2:24 PM PDT (4/9) 3:34 AM PDT (4/9)
Length of Visible Light 14h 09m
Length of Day
13h 10m
Waxing Gibbous, 72% of the Moon is Illuminated
Apr 9
Waxing Gibbous
Apr 15
Full
Apr 22
Last Quarter
Apr 28
New
May 6
First Quarter

Hourly Weather History & Observations

Time (PDT) Temp. Windchill Dew Point Humidity Pressure Visibility Wind Dir Wind Speed Gust Speed Precip Events Conditions
12:15 AM 41.0 °F - 32.0 °F 70% 30.11 in 10.0 mi Calm Calm - N/A   Clear
12:35 AM 41.0 °F - 32.0 °F 70% 30.12 in 10.0 mi Calm Calm - N/A   Clear
12:55 AM 41.0 °F 39.0 °F 32.0 °F 70% 30.12 in 10.0 mi East 3.5 mph - N/A   Clear
1:15 AM 39.2 °F - 32.0 °F 75% 30.12 in 10.0 mi Calm Calm - N/A   Clear
1:35 AM 39.2 °F - 32.0 °F 75% 30.13 in 10.0 mi Calm Calm - N/A   Clear
1:55 AM 37.4 °F - 32.0 °F 81% 30.13 in 10.0 mi Calm Calm - N/A   Clear
2:15 AM 35.6 °F 29.9 °F 32.0 °F 87% 30.13 in 10.0 mi SE 6.9 mph - N/A   Clear
2:35 AM 35.6 °F 32.8 °F 32.0 °F 87% 30.13 in 10.0 mi SE 3.5 mph - N/A   Clear
2:55 AM 37.4 °F 31.4 °F 32.0 °F 81% 30.12 in 10.0 mi SE 8.1 mph - N/A   Clear
3:35 AM 41.0 °F - 35.6 °F 81% 30.11 in 10.0 mi Calm Calm - N/A   Clear
3:55 AM 39.2 °F - 33.8 °F 81% 30.12 in 10.0 mi Calm Calm - N/A   Clear
4:15 AM 37.4 °F - 32.0 °F 81% 30.12 in 10.0 mi Calm Calm - N/A   Clear
4:35 AM 35.6 °F - 32.0 °F 87% 30.11 in 10.0 mi Calm Calm - N/A   Clear
4:55 AM 35.6 °F - 32.0 °F 87% 30.11 in 10.0 mi Calm Calm - N/A   Clear
5:15 AM 35.6 °F - 32.0 °F 87% 30.11 in 10.0 mi Calm Calm - N/A   Clear
5:35 AM 35.6 °F 31.7 °F 32.0 °F 87% 30.11 in 10.0 mi NNE 4.6 mph - N/A   Clear
5:55 AM 35.6 °F 32.8 °F 32.0 °F 87% 30.11 in 10.0 mi ENE 3.5 mph - N/A   Clear
6:15 AM 35.6 °F 29.9 °F 32.0 °F 87% 30.11 in 10.0 mi SE 6.9 mph - N/A   Clear
6:35 AM 35.6 °F 30.7 °F 32.0 °F 87% 30.11 in 10.0 mi SE 5.8 mph - N/A   Clear
6:55 AM 33.8 °F - 32.0 °F 93% 30.12 in 10.0 mi Calm Calm - N/A   Clear
7:15 AM 35.6 °F - 32.0 °F 87% 30.13 in 10.0 mi Calm Calm - N/A   Clear
7:35 AM 39.2 °F 37.0 °F 33.8 °F 81% 30.13 in 10.0 mi South 3.5 mph - N/A   Clear
7:55 AM 42.8 °F - 35.6 °F 76% 30.14 in 10.0 mi Calm Calm - N/A   Clear
8:15 AM 44.6 °F - 35.6 °F 71% 30.14 in 10.0 mi Calm Calm - N/A   Clear
8:35 AM 44.6 °F - 37.4 °F 76% 30.14 in 10.0 mi Calm Calm - N/A   Clear
8:55 AM 46.4 °F 44.3 °F 39.2 °F 76% 30.15 in 10.0 mi North 4.6 mph - N/A   Scattered Clouds
9:15 AM 46.4 °F - 39.2 °F 76% 30.14 in 10.0 mi Calm Calm - N/A   Mostly Cloudy
9:35 AM 48.2 °F - 39.2 °F 71% 30.15 in 10.0 mi North 5.8 mph - N/A   Overcast
9:55 AM 48.2 °F - 39.2 °F 71% 30.15 in 10.0 mi North 4.6 mph - N/A   Overcast
10:15 AM 50.0 °F - 39.2 °F 66% 30.15 in 10.0 mi NNW 5.8 mph - N/A   Overcast
10:35 AM 50.0 °F - 39.2 °F 66% 30.15 in 10.0 mi North 5.8 mph - N/A   Mostly Cloudy
11:15 AM 50.0 °F - 39.2 °F 66% 30.16 in 10.0 mi NNW 6.9 mph - N/A   Overcast
11:35 AM 50.0 °F - 39.2 °F 66% 30.16 in 10.0 mi North 10.4 mph - N/A   Overcast
11:55 AM 48.2 °F - 39.2 °F 71% 30.17 in 10.0 mi North 9.2 mph - N/A   Overcast
12:15 PM 50.0 °F - 39.2 °F 66% 30.16 in 10.0 mi NNE 9.2 mph - N/A   Overcast
12:35 PM 50.0 °F - 39.2 °F 66% 30.16 in 10.0 mi North 8.1 mph - N/A   Overcast
12:55 PM 51.8 °F - 39.2 °F 62% 30.15 in 10.0 mi NW 8.1 mph - N/A   Overcast
1:15 PM 51.8 °F - 39.2 °F 62% 30.15 in 10.0 mi North 6.9 mph - N/A   Overcast
1:35 PM 51.8 °F - 39.2 °F 62% 30.14 in 10.0 mi North 3.5 mph - N/A   Overcast
1:55 PM 53.6 °F - 39.2 °F 58% 30.13 in 10.0 mi NNE 8.1 mph - N/A   Mostly Cloudy
2:15 PM 53.6 °F - 39.2 °F 58% 30.12 in 10.0 mi NNW 6.9 mph - N/A   Mostly Cloudy
2:35 PM 57.2 °F - 39.2 °F 51% 30.12 in 10.0 mi NNE 6.9 mph - N/A   Mostly Cloudy
2:55 PM 55.4 °F - 39.2 °F 54% 30.11 in 10.0 mi NNW 6.9 mph - N/A   Scattered Clouds
3:15 PM 55.4 °F - 37.4 °F 51% 30.11 in 10.0 mi North 8.1 mph - N/A   Mostly Cloudy
3:35 PM 57.2 °F - 37.4 °F 48% 30.10 in 10.0 mi North 8.1 mph - N/A   Scattered Clouds
3:55 PM 57.2 °F - 37.4 °F 48% 30.10 in 10.0 mi North 12.7 mph - N/A   Clear
4:15 PM 57.2 °F - 35.6 °F 44% 30.10 in 10.0 mi North 12.7 mph - N/A   Clear
4:35 PM 59.0 °F - 35.6 °F 42% 30.09 in 10.0 mi North 11.5 mph 17.3 mph N/A   Clear
4:55 PM 57.2 °F - 32.0 °F 38% 30.09 in 10.0 mi NNW 12.7 mph 18.4 mph N/A   Clear
5:15 PM 57.2 °F - 32.0 °F 38% 30.09 in 10.0 mi NNW 12.7 mph 18.4 mph N/A   Clear
5:35 PM 57.2 °F - 30.2 °F 36% 30.09 in 10.0 mi NNW 15.0 mph - N/A   Clear
5:55 PM 57.2 °F - 30.2 °F 36% 30.09 in 10.0 mi NNW 12.7 mph - N/A   Clear
6:15 PM 55.4 °F - 28.4 °F 36% 30.10 in 10.0 mi NW 17.3 mph 21.9 mph N/A   Partly Cloudy
6:35 PM 55.4 °F - 32.0 °F 41% 30.10 in 10.0 mi NW 12.7 mph 17.3 mph N/A   Clear
6:55 PM 55.4 °F - 32.0 °F 41% 30.10 in 10.0 mi NW 10.4 mph 18.4 mph N/A   Clear
7:15 PM 53.6 °F - 32.0 °F 44% 30.10 in 10.0 mi NW 9.2 mph - N/A   Clear
7:35 PM 51.8 °F - 32.0 °F 47% 30.10 in 10.0 mi NW 6.9 mph - N/A   Clear
7:55 PM 50.0 °F - 32.0 °F 50% 30.11 in 10.0 mi NW 5.8 mph - N/A   Clear
8:15 PM 48.2 °F - 32.0 °F 54% 30.11 in 10.0 mi North 4.6 mph - N/A   Clear
8:35 PM 46.4 °F 44.3 °F 32.0 °F 57% 30.12 in 10.0 mi NNW 4.6 mph - N/A   Clear
8:55 PM 46.4 °F 45.2 °F 30.2 °F 53% 30.13 in 10.0 mi NNW 3.5 mph - N/A   Clear
9:15 PM 42.8 °F - 30.2 °F 61% 30.13 in 10.0 mi Calm Calm - N/A   Clear
9:35 PM 42.8 °F 40.1 °F 28.4 °F 57% 30.14 in 10.0 mi NNW 4.6 mph - N/A   Clear
9:55 PM 39.2 °F - 28.4 °F 65% 30.14 in 10.0 mi Calm Calm - N/A   Clear
10:35 PM 37.4 °F - 28.4 °F 70% 30.15 in 10.0 mi Calm Calm - N/A   Clear
10:55 PM 37.4 °F - 28.4 °F 70% 30.15 in 10.0 mi Calm Calm - N/A   Clear
11:15 PM 35.6 °F - 26.6 °F 70% 30.15 in 10.0 mi Calm Calm - N/A   Clear
11:35 PM 35.6 °F - 26.6 °F 70% 30.15 in 10.0 mi Calm Calm - N/A   Clear
11:55 PM 35.6 °F - 26.6 °F 70% 30.15 in 10.0 mi Calm Calm - N/A   Clear